Time,TemperatureF,DewpointF,PressureIn,WindDirection,WindDirectionDegrees,WindSpeedMPH,WindSpeedGustMPH,Humidity,HourlyPrecipIn,Conditions,Clouds,dailyrainin,SoftwareType,DateUTC
2013-02-22 00:01:00,6.0,3.0,-100.00,WNW,296,2.0,4.0,86,0.00,,,-99.99,,2013-02-22 07:01:00,
2013-02-22 00:11:00,9.0,5.0,-100.00,West,274,2.0,3.0,85,0.00,,,-99.99,,2013-02-22 07:11:00,
2013-02-22 00:21:00,9.0,5.0,-100.00,WNW,289,2.0,6.0,83,0.00,,,-99.99,,2013-02-22 07:21:00,
2013-02-22 00:31:00,9.0,4.0,-100.00,WNW,299,2.0,4.0,82,0.00,,,-99.99,,2013-02-22 07:31:00,
2013-02-22 00:42:00,9.0,3.0,-100.00,West,270,2.0,7.0,75,0.00,,,-99.99,,2013-02-22 07:42:00,
2013-02-22 00:51:00,9.0,5.0,-100.00,West,263,3.0,6.0,83,0.00,,,-99.99,,2013-02-22 07:51:00,
2013-02-22 01:01:00,8.0,3.0,-100.00,WNW,291,4.0,7.0,80,0.00,,,-99.99,,2013-02-22 08:01:00,
2013-02-22 01:11:00,8.0,3.0,-100.00,WNW,298,4.0,6.0,79,0.00,,,-99.99,,2013-02-22 08:11:00,
2013-02-22 01:21:00,9.0,3.0,-100.00,NNW,342,1.0,3.0,76,0.00,,,-99.99,,2013-02-22 08:21:00,
2013-02-22 01:31:00,9.0,4.0,-100.00,SSW,212,2.0,6.0,77,0.00,,,-99.99,,2013-02-22 08:31:00,
2013-02-22 01:41:00,8.0,4.0,-100.00,WSW,243,1.0,3.0,81,0.00,,,-99.99,,2013-02-22 08:41:00,
2013-02-22 01:52:00,8.0,3.0,-100.00,South,186,1.0,4.0,80,0.00,,,-99.99,,2013-02-22 08:52:00,
2013-02-22 02:03:00,8.0,3.0,-100.00,SSW,206,0.0,3.0,81,0.00,,,-99.99,,2013-02-22 09:03:00,
2013-02-22 02:11:00,10.0,5.0,-100.00,WNW,299,2.0,4.0,81,0.00,,,-99.99,,2013-02-22 09:11:00,
2013-02-22 02:21:00,10.0,5.0,-100.00,West,268,1.0,6.0,80,0.00,,,-99.99,,2013-02-22 09:21:00,
2013-02-22 02:32:00,11.0,5.0,-100.00,South,185,2.0,6.0,75,0.00,,,-99.99,,2013-02-22 09:32:00,
2013-02-22 02:41:00,11.0,4.0,-100.00,East,80,2.0,6.0,74,0.00,,,-99.99,,2013-02-22 09:41:00,
2013-02-22 02:51:00,10.0,4.0,-100.00,East,85,3.0,6.0,74,0.00,,,-99.99,,2013-02-22 09:51:00,
2013-02-22 03:01:00,8.0,2.0,-100.00,ESE,102,2.0,6.0,76,0.00,,,-99.99,,2013-02-22 10:01:00,
2013-02-22 03:11:00,8.0,4.0,-100.00,East,80,4.0,7.0,84,0.00,,,-99.99,,2013-02-22 10:11:00,
2013-02-22 03:21:00,8.0,3.0,-100.00,East,100,2.0,6.0,80,0.00,,,-99.99,,2013-02-22 10:21:00,
2013-02-22 03:32:00,8.0,4.0,-100.00,ESE,117,3.0,6.0,84,0.00,,,-99.99,,2013-02-22 10:32:00,
2013-02-22 03:42:00,8.0,4.0,-100.00,SSE,165,2.0,4.0,84,0.00,,,-99.99,,2013-02-22 10:42:00,
2013-02-22 03:51:00,9.0,5.0,-100.00,West,264,2.0,6.0,85,0.00,,,-99.99,,2013-02-22 10:51:00,
2013-02-22 04:01:00,10.0,6.0,-100.00,SSW,212,2.0,7.0,84,0.00,,,-99.99,,2013-02-22 11:01:00,
2013-02-22 04:11:00,9.0,4.0,-100.00,WNW,285,1.0,6.0,82,0.00,,,-99.99,,2013-02-22 11:11:00,
2013-02-22 04:21:00,13.0,8.0,-100.00,WNW,296,2.0,6.0,80,0.00,,,-99.99,,2013-02-22 11:21:00,
2013-02-22 04:32:00,17.0,7.0,-100.00,WNW,302,7.0,12.0,65,0.00,,,-99.99,,2013-02-22 11:32:00,
2013-02-22 04:42:00,17.0,6.0,-100.00,NW,311,11.0,13.0,63,0.00,,,-99.99,,2013-02-22 11:42:00,
2013-02-22 04:52:00,14.0,6.0,-100.00,SW,230,6.0,11.0,70,0.00,,,-99.99,,2013-02-22 11:52:00,
2013-02-22 05:02:00,12.0,5.0,-100.00,South,169,6.0,9.0,74,0.00,,,-99.99,,2013-02-22 12:02:00,
2013-02-22 05:11:00,13.0,4.0,-100.00,SE,141,6.0,9.0,69,0.00,,,-99.99,,2013-02-22 12:11:00,
2013-02-22 05:21:00,8.0,4.0,-100.00,West,261,3.0,8.0,81,0.00,,,-99.99,,2013-02-22 12:21:00,
2013-02-22 05:32:00,14.0,6.0,-100.00,West,268,2.0,6.0,70,0.00,,,-99.99,,2013-02-22 12:32:00,
2013-02-22 05:42:00,11.0,2.0,-100.00,SSE,155,4.0,14.0,66,0.00,,,-99.99,,2013-02-22 12:42:00,
2013-02-22 05:52:00,8.0,6.0,-100.00,SE,127,12.0,18.0,89,0.00,,,-99.99,,2013-02-22 12:52:00,
2013-02-22 06:01:00,10.0,6.0,-100.00,SE,124,10.0,16.0,82,0.00,,,-99.99,,2013-02-22 13:01:00,
2013-02-22 06:11:00,10.0,5.0,-100.00,SE,124,12.0,16.0,80,0.00,,,-99.99,,2013-02-22 13:11:00,
2013-02-22 06:22:00,9.0,4.0,-100.00,SE,127,10.0,16.0,81,0.00,,,-99.99,,2013-02-22 13:22:00,
2013-02-22 06:32:00,9.0,4.0,-100.00,SE,130,10.0,13.0,79,0.00,,,-99.99,,2013-02-22 13:32:00,
2013-02-22 06:42:00,9.0,4.0,-100.00,SE,136,8.0,13.0,80,0.00,,,-99.99,,2013-02-22 13:42:00,
2013-02-22 06:51:00,9.0,5.0,-100.00,ENE,59,3.0,6.0,81,0.00,,,-99.99,,2013-02-22 13:51:00,
2013-02-22 07:01:00,11.0,5.0,-100.00,South,171,4.0,9.0,75,0.00,,,-99.99,,2013-02-22 14:01:00,
2013-02-22 07:11:00,12.0,4.0,-100.00,SE,134,6.0,12.0,71,0.00,,,-99.99,,2013-02-22 14:11:00,
2013-02-22 07:21:00,11.0,4.0,-100.00,SE,144,3.0,6.0,72,0.00,,,-99.99,,2013-02-22 14:21:00,
2013-02-22 07:32:00,14.0,5.0,-100.00,South,185,4.0,9.0,68,0.00,,,-99.99,,2013-02-22 14:32:00,
2013-02-22 07:42:00,18.0,6.0,-100.00,WSW,241,6.0,14.0,58,0.00,,,-99.99,,2013-02-22 14:42:00,
2013-02-22 07:52:00,20.0,6.0,-100.00,WNW,292,13.0,20.0,55,0.00,,,-99.99,,2013-02-22 14:52:00,
2013-02-22 08:01:00,20.0,6.0,-100.00,WNW,288,12.0,17.0,56,0.00,,,-99.99,,2013-02-22 15:01:00,
2013-02-22 08:11:00,12.0,5.0,-100.00,South,181,5.0,8.0,73,0.00,,,-99.99,,2013-02-22 15:11:00,
2013-02-22 08:21:00,12.0,6.0,-100.00,SSE,150,4.0,7.0,76,0.00,,,-99.99,,2013-02-22 15:21:00,
2013-02-22 08:32:00,12.0,7.0,-100.00,SSE,161,4.0,10.0,77,0.00,,,-99.99,,2013-02-22 15:32:00,
2013-02-22 08:41:00,11.0,7.0,-100.00,SSE,148,7.0,9.0,82,0.00,,,-99.99,,2013-02-22 15:41:00,
2013-02-22 08:52:00,12.0,7.0,-100.00,SSE,158,7.0,10.0,80,0.00,,,-99.99,,2013-02-22 15:52:00,
2013-02-22 09:01:00,13.0,8.0,-100.00,SSE,161,5.0,7.0,78,0.00,,,-99.99,,2013-02-22 16:01:00,
2013-02-22 09:12:00,15.0,9.0,-100.00,South,182,2.0,4.0,74,0.00,,,-99.99,,2013-02-22 16:12:00,
2013-02-22 09:21:00,16.0,9.0,-100.00,SSE,150,2.0,6.0,73,0.00,,,-99.99,,2013-02-22 16:21:00,
2013-02-22 09:32:00,16.0,9.0,-100.00,South,176,4.0,6.0,72,0.00,,,-99.99,,2013-02-22 16:32:00,
2013-02-22 09:42:00,16.0,9.0,-100.00,SSE,164,5.0,7.0,71,0.00,,,-99.99,,2013-02-22 16:42:00,
2013-02-22 09:52:00,18.0,10.0,-100.00,SE,145,5.0,7.0,70,0.00,,,-99.99,,2013-02-22 16:52:00,
2013-02-22 10:01:00,19.0,8.0,-100.00,South,174,3.0,5.0,62,0.00,,,-99.99,,2013-02-22 17:01:00,
2013-02-22 10:11:00,20.0,6.0,-100.00,SSW,198,4.0,7.0,56,0.00,,,-99.99,,2013-02-22 17:11:00,
2013-02-22 10:21:00,20.0,7.0,-100.00,ENE,75,5.0,14.0,55,0.00,,,-99.99,,2013-02-22 17:21:00,
2013-02-22 10:31:00,20.0,6.0,-100.00,NW,326,12.0,19.0,53,0.00,,,-99.99,,2013-02-22 17:31:00,
2013-02-22 10:42:00,20.0,7.0,-100.00,NW,318,18.0,28.0,56,0.00,,,-99.99,,2013-02-22 17:42:00,
2013-02-22 10:52:00,21.0,7.0,-100.00,NW,313,18.0,28.0,54,0.00,,,-99.99,,2013-02-22 17:52:00,
2013-02-22 11:01:00,22.0,7.0,-100.00,WSW,246,10.0,23.0,51,0.00,,,-99.99,,2013-02-22 18:01:00,
2013-02-22 11:12:00,22.0,8.0,-100.00,SSW,195,7.0,11.0,53,0.00,,,-99.99,,2013-02-22 18:12:00,
2013-02-22 11:22:00,21.0,8.0,-100.00,West,274,9.0,16.0,56,0.00,,,-99.99,,2013-02-22 18:22:00,
2013-02-22 11:32:00,20.0,7.0,-100.00,NW,315,14.0,19.0,54,0.00,,,-99.99,,2013-02-22 18:32:00,
2013-02-22 11:42:00,21.0,8.0,-100.00,NW,320,15.0,19.0,58,0.00,,,-99.99,,2013-02-22 18:42:00,
2013-02-22 11:51:00,21.0,8.0,-100.00,NW,316,15.0,19.0,57,0.00,,,-99.99,,2013-02-22 18:51:00,
2013-02-22 12:01:00,21.0,10.0,-100.00,NW,323,17.0,21.0,61,0.00,,,-99.99,,2013-02-22 19:01:00,
2013-02-22 12:11:00,21.0,9.0,-100.00,NNW,328,14.0,20.0,58,0.00,,,-99.99,,2013-02-22 19:11:00,
2013-02-22 12:21:00,22.0,7.0,-100.00,NW,319,17.0,21.0,52,0.00,,,-99.99,,2013-02-22 19:21:00,
2013-02-22 12:31:00,23.0,4.0,-100.00,WSW,254,9.0,22.0,43,0.00,,,-99.99,,2013-02-22 19:31:00,
2013-02-22 12:41:00,24.0,8.0,-100.00,SW,217,4.0,9.0,50,0.00,,,-99.99,,2013-02-22 19:41:00,
2013-02-22 12:52:00,24.0,7.0,-100.00,SSW,213,6.0,7.0,49,0.00,,,-99.99,,2013-02-22 19:52:00,
2013-02-22 13:01:00,25.0,6.0,-100.00,South,174,4.0,8.0,44,0.00,,,-99.99,,2013-02-22 20:01:00,
2013-02-22 13:11:00,25.0,4.0,-100.00,SW,234,5.0,10.0,40,0.00,,,-99.99,,2013-02-22 20:11:00,
2013-02-22 13:21:00,24.0,4.0,-100.00,WNW,299,14.0,23.0,42,0.00,,,-99.99,,2013-02-22 20:21:00,
2013-02-22 13:31:00,24.0,7.0,-100.00,WNW,299,16.0,21.0,48,0.00,,,-99.99,,2013-02-22 20:31:00,
2013-02-22 13:41:00,23.0,5.0,-100.00,WNW,295,12.0,18.0,44,0.00,,,-99.99,,2013-02-22 20:41:00,
2013-02-22 13:52:00,24.0,1.0,-100.00,WNW,292,15.0,22.0,37,0.00,,,-99.99,,2013-02-22 20:52:00,
2013-02-22 14:01:00,24.0,0.0,-100.00,WNW,287,12.0,19.0,35,0.00,,,-99.99,,2013-02-22 21:01:00,
2013-02-22 14:11:00,24.0,5.0,-100.00,WNW,292,16.0,25.0,43,0.00,,,-99.99,,2013-02-22 21:11:00,
2013-02-22 14:21:00,23.0,3.0,-100.00,WNW,296,18.0,24.0,41,0.00,,,-99.99,,2013-02-22 21:21:00,
2013-02-22 14:32:00,23.0,3.0,-100.00,WNW,298,17.0,21.0,42,0.00,,,-99.99,,2013-02-22 21:32:00,
2013-02-22 14:42:00,25.0,4.0,-100.00,WNW,299,16.0,22.0,41,0.00,,,-99.99,,2013-02-22 21:42:00,
2013-02-22 14:51:00,24.0,3.0,-100.00,WNW,288,12.0,18.0,40,0.00,,,-99.99,,2013-02-22 21:51:00,
2013-02-22 15:01:00,24.0,4.0,-100.00,WNW,294,14.0,21.0,41,0.00,,,-99.99,,2013-02-22 22:01:00,
2013-02-22 15:11:00,23.0,3.0,-100.00,NW,304,12.0,17.0,40,0.00,,,-99.99,,2013-02-22 22:11:00,
2013-02-22 15:21:00,23.0,2.0,-100.00,NW,305,11.0,20.0,40,0.00,,,-99.99,,2013-02-22 22:21:00,
2013-02-22 15:31:00,24.0,2.0,-100.00,NW,306,9.0,13.0,39,0.00,,,-99.99,,2013-02-22 22:31:00,
2013-02-22 15:41:00,24.0,4.0,-100.00,WNW,288,13.0,18.0,42,0.00,,,-99.99,,2013-02-22 22:41:00,
2013-02-22 15:51:00,23.0,1.0,-100.00,WNW,291,12.0,17.0,38,0.00,,,-99.99,,2013-02-22 22:51:00,
2013-02-22 16:01:00,23.0,4.0,-100.00,WNW,294,11.0,18.0,42,0.00,,,-99.99,,2013-02-22 23:01:00,
2013-02-22 16:11:00,23.0,2.0,-100.00,WNW,302,14.0,20.0,39,0.00,,,-99.99,,2013-02-22 23:11:00,
2013-02-22 16:21:00,23.0,3.0,-100.00,WNW,289,11.0,14.0,41,0.00,,,-99.99,,2013-02-22 23:21:00,
2013-02-22 16:31:00,23.0,2.0,-100.00,WNW,294,10.0,16.0,39,0.00,,,-99.99,,2013-02-22 23:31:00,
2013-02-22 16:41:00,22.0,2.0,-100.00,West,275,12.0,18.0,40,0.00,,,-99.99,,2013-02-22 23:41:00,
2013-02-22 16:52:00,22.0,2.0,-100.00,West,281,11.0,19.0,40,0.00,,,-99.99,,2013-02-22 23:52:00,
2013-02-22 17:01:00,23.0,2.0,-100.00,WSW,257,11.0,17.0,40,0.00,,,-99.99,,2013-02-23 00:01:00,
2013-02-22 17:11:00,22.0,1.0,-100.00,West,277,7.0,11.0,41,0.00,,,-99.99,,2013-02-23 00:11:00,
2013-02-22 17:21:00,21.0,3.0,-100.00,NW,305,4.0,7.0,45,0.00,,,-99.99,,2013-02-23 00:21:00,
2013-02-22 17:32:00,21.0,2.0,-100.00,NW,313,6.0,8.0,44,0.00,,,-99.99,,2013-02-23 00:32:00,
2013-02-22 17:41:00,20.0,3.0,-100.00,WNW,301,7.0,12.0,47,0.00,,,-99.99,,2013-02-23 00:41:00,
2013-02-22 17:51:00,19.0,4.0,-100.00,WNW,288,7.0,12.0,49,0.00,,,-99.99,,2013-02-23 00:51:00,
2013-02-22 18:01:00,19.0,4.0,-100.00,WNW,294,6.0,9.0,50,0.00,,,-99.99,,2013-02-23 01:01:00,
2013-02-22 18:11:00,19.0,2.0,-100.00,West,277,4.0,7.0,45,0.00,,,-99.99,,2013-02-23 01:11:00,
2013-02-22 18:21:00,19.0,2.0,-100.00,WSW,253,3.0,6.0,46,0.00,,,-99.99,,2013-02-23 01:21:00,
2013-02-22 18:31:00,19.0,3.0,-100.00,SSW,212,1.0,4.0,48,0.00,,,-99.99,,2013-02-23 01:31:00,
2013-02-22 18:41:00,17.0,3.0,-100.00,East,95,2.0,6.0,54,0.00,,,-99.99,,2013-02-23 01:41:00,
2013-02-22 18:51:00,17.0,3.0,-100.00,East,96,2.0,6.0,52,0.00,,,-99.99,,2013-02-23 01:51:00,
2013-02-22 19:01:00,18.0,2.0,-100.00,NE,40,1.0,5.0,49,0.00,,,-99.99,,2013-02-23 02:01:00,
2013-02-22 19:11:00,19.0,2.0,-100.00,SE,134,5.0,11.0,47,0.00,,,-99.99,,2013-02-23 02:11:00,
2013-02-22 19:21:00,19.0,2.0,-100.00,SSE,160,3.0,6.0,47,0.00,,,-99.99,,2013-02-23 02:21:00,
2013-02-22 19:31:00,19.0,1.0,-100.00,West,264,5.0,12.0,45,0.00,,,-99.99,,2013-02-23 02:31:00,
2013-02-22 19:41:00,18.0,2.0,-100.00,NNE,20,2.0,6.0,48,0.00,,,-99.99,,2013-02-23 02:41:00,
2013-02-22 19:52:00,16.0,4.0,-100.00,South,176,7.0,10.0,58,0.00,,,-99.99,,2013-02-23 02:52:00,
2013-02-22 20:01:00,21.0,2.0,-100.00,WSW,244,7.0,15.0,43,0.00,,,-99.99,,2013-02-23 03:01:00,
2013-02-22 20:11:00,18.0,4.0,-100.00,South,175,5.0,9.0,55,0.00,,,-99.99,,2013-02-23 03:11:00,
2013-02-22 20:21:00,18.0,3.0,-100.00,SSW,202,4.0,10.0,51,0.00,,,-99.99,,2013-02-23 03:21:00,
2013-02-22 20:32:00,19.0,1.0,-100.00,SW,219,4.0,9.0,45,0.00,,,-99.99,,2013-02-23 03:32:00,
2013-02-22 20:41:00,20.0,2.0,-100.00,SW,219,6.0,15.0,44,0.00,,,-99.99,,2013-02-23 03:41:00,
2013-02-22 20:51:00,19.0,2.0,-100.00,SSE,155,4.0,10.0,47,0.00,,,-99.99,,2013-02-23 03:51:00,
2013-02-22 21:01:00,18.0,3.0,-100.00,SE,124,4.0,10.0,51,0.00,,,-99.99,,2013-02-23 04:01:00,
2013-02-22 21:11:00,18.0,3.0,-100.00,NE,49,6.0,10.0,51,0.00,,,-99.99,,2013-02-23 04:11:00,
2013-02-22 21:21:00,19.0,2.0,-100.00,NE,42,4.0,7.0,48,0.00,,,-99.99,,2013-02-23 04:21:00,
2013-02-22 21:31:00,20.0,1.0,-100.00,WSW,239,11.0,28.0,43,0.00,,,-99.99,,2013-02-23 04:31:00,
2013-02-22 21:41:00,20.0,2.0,-100.00,WSW,253,9.0,21.0,45,0.00,,,-99.99,,2013-02-23 04:41:00,
2013-02-22 21:51:00,20.0,3.0,-100.00,West,268,15.0,27.0,48,0.00,,,-99.99,,2013-02-23 04:51:00,
2013-02-22 22:02:00,20.0,3.0,-100.00,West,280,12.0,31.0,47,0.00,,,-99.99,,2013-02-23 05:02:00,
2013-02-22 22:12:00,20.0,3.0,-100.00,North,350,3.0,13.0,47,0.00,,,-99.99,,2013-02-23 05:12:00,
2013-02-22 22:22:00,20.0,0.0,-100.00,ENE,61,6.0,16.0,41,0.00,,,-99.99,,2013-02-23 05:22:00,
2013-02-22 22:32:00,21.0,1.0,-100.00,SE,141,11.0,24.0,41,0.00,,,-99.99,,2013-02-23 05:32:00,
2013-02-22 22:41:00,21.0,1.0,-100.00,SSE,152,11.0,18.0,41,0.00,,,-99.99,,2013-02-23 05:41:00,
2013-02-22 22:52:00,19.0,0.0,-100.00,East,96,7.0,13.0,43,0.00,,,-99.99,,2013-02-23 05:52:00,
2013-02-22 23:01:00,20.0,0.0,-100.00,East,93,7.0,15.0,43,0.00,,,-99.99,,2013-02-23 06:01:00,
2013-02-22 23:11:00,23.0,-3.0,-100.00,East,89,7.0,28.0,32,0.00,,,-99.99,,2013-02-23 06:11:00,
2013-02-22 23:22:00,22.0,-1.0,-100.00,SE,138,9.0,21.0,35,0.00,,,-99.99,,2013-02-23 06:22:00,
2013-02-22 23:31:00,19.0,0.0,-100.00,ESE,123,13.0,32.0,42,0.00,,,-99.99,,2013-02-23 06:31:00,
2013-02-22 23:41:00,19.0,0.0,-100.00,ESE,123,13.0,32.0,42,0.00,,,-99.99,,2013-02-23 06:41:00,
2013-02-22 23:51:00,19.0,0.0,-100.00,ESE,123,13.0,32.0,42,0.00,,,-99.99,,2013-02-23 06:51:00,